Lid_Strength_Index
4 4 4 4 4 4 4 3 2 1 2 3 4 4 4 4 4 5 6 5 7 8 7 6 6 6 6 6 9 7 7 6 8 10 11 11 12 10 11 9 10 10 10 10 10 12 12 6 6 9 6 5 5 6
4 4 4 4 4 4 4 3 2 1 2 3 4 5 4 4 4 5 7 6 6 8 8 6 5 5 5 5 7 6 7 7 6 9 9 9 10 9 11 11 8 10 8 9 9 9 7 5 6 5 4 6 6 5
4 4 4 4 4 4 4 3 2 1 2 3 4 5 5 5 4 5 6 6 7 8 7 6 5 4 5 5 4 8 5 5 6 5 7 8 10 8 11 10 9 7 6 8 9 7 7 6 5 4 4 5 4 4
4 4 4 4 4 4 4 3 3 2 2 3 4 4 5 5 5 5 6 7 7 8 9 6 3 4 3 4 5 4 4 3 4 5 7 8 9 7 8 8 8 7 7 8 9 7 6 6 5 4 4 4 4 4
5 5 4 4 4 4 4 3 3 2 2 3 3 4 5 5 5 5 6 6 6 7 7 6 4 3 3 4 4 5 5 4 5 7 7 8 6 7 7 7 7 6 7 8 7 6 6 6 4 4 5 5 4 4
5 5 5 4 4 4 3 2 2 2 3 3 3 4 4 5 6 8 8 6 6 6 6 9 3 4 3 4 4 5 5 5 5 5 6 5 6 6 8 9 6 5 5 5 6 5 5 4 4 3 4 4 4 4
5 5 4 4 4 3 3 3 2 2 2 3 3 4 5 5 6 8 9 5 6 5 6 8 7 4 4 4 4 5 5 5 5 5 6 5 6 5 7 9 6 5 5 4 4 4 6 5 5 4 4 4 5 4
5 5 4 4 3 2 2 2 2 3 3 3 4 4 4 5 5 7 6 6 6 6 7 8 8 6 3 5 6 5 5 5 5 5 5 6 6 6 9 6 5 5 5 5 4 4 4 4 3 4 4 5 5 6
4 3 3 3 3 3 3 4 4 5 5 4 4 5 5 6 7 5 4 5 6 7 8 7 9 9 4 5 5 5 5 7 5 6 6 6 7 9 7 6 5 5 5 5 4 4 4 4 4 4 5 5 6 6
4 4 4 4 4 5 5 5 6 6 5 5 6 6 6 5 4 4 4 6 8 7 6 8 6 8 5 6 6 6 5 7 9 7 5 8 8 6 5 4 4 4 4 4 6 6 5 5 5 5 5 5 5 5
4 4 5 5 6 6 6 6 6 6 5 6 6 6 5 5 3 4 7 7 7 9 8 6 7 8 5 7 7 6 7 7 10 8 8 9 9 7 4 4 4 4 4 4 3 3 3 4 4 4 5 4 5 5
6 6 6 6 6 6 6 6 6 6 7 7 7 7 6 4 6 8 9 7 8 9 7 8 6 6 5 5 6 6 8 8 11 7 9 10 7 5 5 4 4 4 4 4 3 4 3 3 3 4 4 5 4 4
6 7 6 6 6 6 6 6 6 5 6 6 7 7 7 6 12 12 12 10 10 7 6 6 7 6 6 6 6 8 10 10 7 10 10 8 6 5 5 4 4 3 3 3 3 3 3 4 3 4 4 4 4 4
6 6 7 7 7 7 7 6 6 6 7 9 9 12 9 10 9 9 8 8 6 5 6 6 7 7 7 8 7 10 8 8 11 12 10 7 5 5 5 4 4 4 4 4 3 4 4 4 4 4 4 4 4 4
7 6 7 7 6 7 6 6 6 7 7 9 8 12 9 7 6 5 5 6 5 5 6 6 7 6 7 8 8 9 11 12 10 10 7 6 5 5 5 5 4 4 4 4 4 4 4 5 4 5 4 4 3 3
6 6 7 6 7 7 6 6 5 6 7 9 9 8 7 7 7 6 6 6 4 5 5 6 8 9 9 9 10 11 11 12 9 7 5 5 5 5 5 4 4 4 3 4 4 4 5 5 5 5 4 4 4 3
6 7 5 5 5 6 5 6 6 8 9 9 9 7 7 7 7 7 6 5 4 5 8 8 11 11 8 10 10 8 9 8 7 6 5 5 5 5 4 4 4 4 5 4 5 5 4 4 5 5 5 4 3 3
6 5 5 4 5 5 5 5 7 7 9 8 10 9 7 7 7 7 6 5 5 6 6 9 7 11 11 11 9 8 7 6 5 5 5 5 4 4 4 4 4 5 5 5 5 5 5 5 5 5 5 4 4 4
5 5 4 4 5 6 7 7 7 9 8 7 7 7 7 7 6 6 6 6 6 5 6 7 10 11 9 8 8 7 6 6 6 6 5 4 4 4 4 5 5 5 5 5 5 5 5 4 5 4 5 5 5 5
4 4 4 4 4 6 8 7 5 8 10 8 7 8 8 7 6 6 5 5 5 5 7 8 8 8 7 6 5 5 5 4 5 6 6 4 4 4 5 5 5 5 5 5 5 7 5 4 4 4 4 4 4 4
5 4 4 5 6 6 7 8 7 7 8 8 7 7 7 6 7 7 6 5 6 7 7 6 6 5 4 4 3 4 4 4 5 5 5 5 4 4 4 4 5 5 5 5 5 5 6 4 4 4 4 4 3 3
5 4 5 5 8 8 8 7 8 7 8 7 8 7 8 8 7 6 5 7 7 6 5 5 5 4 4 5 4 3 3 3 3 4 6 5 5 4 4 4 5 5 5 5 4 4 4 4 4 4 4 4 5 3
5 5 7 8 10 11 11 6 10 8 10 8 7 8 8 8 6 5 8 6 6 4 4 4 3 3 3 3 3 3 3 3 4 4 4 4 4 3 3 3 3 4 5 5 4 4 4 6 6 4 4 4 4 3
4 7 9 10 10 12 9 11 9 10 8 9 9 10 8 7 5 7 9 7 5 4 4 4 4 4 4 3 4 4 3 3 3 3 3 4 4 4 3 3 2 2 2 3 4 4 3 4 6 4 3 4 3 4
9 9 9 11 8 10 10 10 10 10 11 10 10 10 8 7 9 9 9 7 5 5 5 4 4 4 5 4 4 3 2 3 4 4 3 3 4 3 3 3 2 2 1 3 3 3 3 3 4 4 5 5 4 4
10 8 9 8 8 9 9 10 9 9 10 10 9 7 6 8 10 10 8 6 5 5 5 4 5 5 4 4 4 4 3 2 3 4 3 3 3 4 4 4 4 3 1 1 2 3 3 3 3 4 5 4 8 4
11 9 7 5 6 7 8 7 7 8 10 10 9 9 9 11 11 8 5 4 4 4 3 3 3 4 4 3 3 3 2 2 2 3 2 2 2 2 3 4 4 2 1 1 1 2 2 2 2 3 4 4 3 3
9 8 10 8 8 7 8 8 8 9 8 7 8 10 11 10 9 5 4 3 3 3 3 2 2 2 3 3 3 2 2 2 2 2 2 2 1 2 1 1 1 7 1 1 1 1 1 2 2 2 2 3 3 2
9 8 9 10 9 8 8 9 8 6 5 7 9 9 8 5 4 4 3 2 2 4 3 3 3 2 3 3 2 3 2 3 4 5 5 5 5 3 1 1 1 1 1 1 8 4 1 1 2 2 2 2 1 1
9 7 8 8 10 9 7 6 6 4 5 5 5 5 5 4 3 2 2 3 3 4 4 3 3 3 4 4 4 4 2 2 3 3 5 5 4 2 2 1 1 1 1 1 1 2 9 3 5 2 2 1 1 1
7 8 8 8 8 6 5 4 4 4 4 5 5 6 7 5 3 2 3 2 3 4 4 4 3 3 3 3 3 4 4 3 3 3 3 2 2 2 1 1 1 1 1 1 1 2 2 2 2 2 2 2 2 2
8 9 8 9 8 6 5 6 6 7 7 7 7 6 6 6 7 5 3 3 4 4 4 4 4 4 4 3 2 2 7 2 3 2 2 2 2 1 2 1 1 1 1 1 2 2 2 2 2 2 2 2 2 2
7 8 8 8 8 8 7 7 8 8 7 8 7 7 7 7 8 5 2 3 3 3 3 3 3 3 3 3 3 2 5 2 4 9 8 7 6 5 2 1 1 1 1 1 2 2 2 2 2 2 2 2 2 2